NOAA 16 DEB, 41411

Orbit data source: Space-Track

NOAA 16 DEB, 41411 is space debris in SSO originally from a launch on Thu, 21 Sep 2000 UTC launched from the Air Force Western Test Range (AFWTR). Debris objects in space refer to the collection of defunct objects orbiting the Earth. Examples of debris include non-operational satellites, rocket bodies, and fragments generated from explosions, collisions, or faulty payload assembly.

Loading next visibility...
Identifier
41411, 2000-055KQ
Orbit
SSO
Country
Flag of USUS
Related business
Manufacturer
Unknown
Mission
Spacecraft
Bus & Motor
Unknown
Mass
Unknown
Launch date (UTC)
2000-09-21 (26 years ago)
Launch vehicle
Unknown
Launch site
Air Force Western Test Range (AFWTR)
Object type
Payload
Rocket body
Debris
Shape & HBR
Unknown shape, 0.1 m
Radar Cross Section
Medium (>0.1 m² and <1 m²)

Expand to show TLE details & history
Last TLE update: 2 days ago

TLE from 2 days ago
0 NOAA 16 DEB
1 41411U 00055KQ  26192.58577452  .00002569  00000-0  84441-3 0  9990
2 41411  98.8434 321.6906 0016025 101.7276 258.5709 14.39102537540240
Epoch: 2026-07-11T14:03Z
TLE epoch observation values (Epoch: 2026-07-11T14:03:30.918Z)
Latitude
-0.00008°
Longitude
-178.68509°
Altitude
766.687 km
Speed
7.47 km/s
True Right ascension
21h 26m 45s
True Declination
0° 00' 00"
Sunlit
Object was in full shadow at epoch
Visualization orbit readout
Latitude
Unknown
Longitude
Unknown
Altitude
Unknown
Speed
Unknown
Apparent Right ascension
Unknown
Apparent Declination
Unknown
Sunlit
N/A
Visualization observer readout
Local Sidereal Time
21:43:32
Azimuth
Unknown
Elevation
Unknown
Doppler factor
Unknown
Orbital elements
Apogee altitude
770.041 km
Perigee altitude
747.168 km
Semi-major axis
7,136.742 km
Eccentricity
0.0016
Inclination
98.8434°
RAAN
321.6906°
Arg. of periapsis
101.7276°
True anomaly
258.39098°
Mean anomaly
258.5709°
Eccentric anomaly
258.48093°
Mean motion
3.59992 °/min
Orbital period
100 mins
BSTAR
0.00084441
Loading maneuver chart data...
Computing Atmospheric mass density...
Loading historical data...
Loading historical data...
Loading historical data...
Loading historical data...
Loading historical data...
Loading historical data...
Loading historical data...

Documentation

Showing up to 5 results
|